SL-16 DEB, 35420

Orbit data source: Space-Track

SL-16 DEB, 35420 is space debris in SSO originally from a launch on Mon, 10 Dec 2001 UTC launched from the Tyuratam Missile And Space Complex (TTMTR). Debris objects in space refer to the collection of defunct objects orbiting the Earth. Examples of debris include non-operational satellites, rocket bodies, and fragments generated from explosions, collisions, or faulty payload assembly.

Loading next visibility...
Identifier
35420, 2001-056M
Orbit
SSO
Last TLE update
2 days ago
Origin
Manufacturer
Unknown
Mission
Spacecraft
Bus & Motor
Unknown
Mass
Unknown
Launch date (UTC)
2001-12-10 (24 years ago)
Launch vehicle
Unknown
Launch site
Tyuratam Missile And Space Complex (TTMTR)
Object type
Payload
Rocket body
Debris
Shape & HBR
Unknown
Radar Cross Section
Small (<0.1 m²)

Expand to show TLE details & history

TLE from 2 days ago
0 SL-16 DEB
1 35420U 01056M   25182.15794650  .00000321  00000-0  36695-3 0  9999
2 35420  99.4121 314.6171 0025580 108.9834  69.8023 13.77291738178448
Epoch: 2025-07-01T03:47Z
TLE epoch observation values (Epoch: 2025-07-01T03:47:26.577Z)
Latitude
0.81765°
Longitude
158.43378°
Altitude
969.787 km
Speed
7.37 km/s
True Right ascension
08h 59m 00s
True Declination
0° 48' 46"
Sunlit
Object was in daylight at epoch
Visualization orbit readout
Latitude
-70.69998°
Longitude
8.71445°
Altitude
1,018.524 km
Speed
7.332 km/s
Apparent Right ascension
12h 43m 16s
Apparent Declination
-76° 51' 44"
Sunlit
Object is in partial shadow
Visualization observer readout
Local Sidereal Time
23:52:59
Azimuth
184.678° SSW
Elevation
-52.657°
Doppler factor
1
Orbital elements
Apogee altitude
989.557 km
Perigee altitude
951.96 km
Semi-major axis
7,348.896 km
Eccentricity
0.00256
Inclination
99.4121°
RAAN
314.6171°
Arg. of periapsis
108.9834°
True anomaly
Unknown
Mean anomaly
69.8023°
Eccentric anomaly
Unknown
Mean motion
3.44517 °/min
Orbital period
104.49 mins
BSTAR
0.00036695
Loading maneuver chart data...
Loading SW <> Apogee altitude chart data...
Loading historical data...
Loading historical data...
Loading historical data...
Loading historical data...
Loading historical data...
Loading historical data...
Loading historical data...

SL-16 DEB Visibility forecast

Observer location: undefined°, undefined°

Span
Click to sort rows by Start time (UTC) header in descending order
Start Az.
Max El. time (UTC)
Max El. Az.
Max El.
End time (UTC)
End Az.
10 mins2025-07-03 21:46:23.012Z15.423° NNE2025-07-03 21:51:23.012Z175.785° S44.715°2025-07-03 21:56:23.012Z194.765° SSW
5 mins2025-07-03 23:31:23.012Z324.524° NNW2025-07-03 23:33:23.012Z302.916° NW14.378°2025-07-03 23:36:23.012Z271.93° WNW
9 mins2025-07-04 07:47:23.012Z117.016° SE2025-07-04 07:51:23.012Z62.204° ENE27.665°2025-07-04 07:56:23.012Z5.435° NNE
9 mins2025-07-04 09:30:23.012Z203.12° SW2025-07-04 09:34:23.012Z265.67° W32.212°2025-07-04 09:39:23.012Z327.987° NNW
|